Погода в Тяня

Россия / Республика Саха (Якутия)     59°03′16″N   119°47′57″E
темп.,
°C
ветер,
м/с
пор.,
м/с
влажн.,
%
обл.,
%
осадки,
мм/ч
давл.,
гПа
погр.,
м
1 марта, пн
пн100:00−30з128989 0.0 103619
03:00−30юз118994 0.0 103619
06:00−31ююз119393 0.0 103519
09:00−31ююз119181 0.0 103519
12:00−23юз1289100 0.0 1032432
15:00−22зсз2474100 0.1 10301274
18:00−24з0188100 0.0 102920
21:00−29ю119299 0.0 102919
2 марта, вт
вт200:00−31юв119691 0.0 102819
03:00−32юв1110086 0.0 102819
06:00−33юв119882 0.0 102619
09:00−33вюв119575 0.0 102419
12:00−25вюв138073 0.0 1021374
15:00−22вюв248273 0.0 1019567
18:00−23всв239382 0.0 101872
21:00−28всв129384 0.0 101919
3 марта, ср
ср300:00−30св1196100 0.0 101919
03:00−31в0196100 0.0 101919
06:00−31в0196100 0.0 101919
09:00−30всв0194100 0.0 102035
12:00−25ссз1188100 0.0 1019392
15:00−23ссз2389100 0.1 1020616
18:00−24ссз2594100 0.1 1022370
21:00−28ссз1297100 0.1 102519
4 марта, чт
чт400:00−28ссз1199100 0.1 102720
03:00−31зсз1299100 0.1 103019
06:00−34з1298100 0.0 103219
09:00−33з129699 0.0 103337
12:00−27зсз488388 0.0 1033889
15:00−24зсз588294 0.0 10321222
18:00−24зсз51084100 0.1 10331186
21:00−25зсз51183100 0.1 1035990
5 марта, пт
пт500:00−26зсз51378100 0.0 1036957
03:00−27зсз41380100 0.0 1038836
06:00−30з2882100 0.0 1039238
09:00−31юз228765 0.0 104066
12:00−24з36760 0.0 1038605
15:00−21зсз35740 0.0 1037845
18:00−23зюз22880 0.0 103638
21:00−29юз12890 0.0 103719